• în România
  • Lista ţărilor
  • Pe 7 zile
  • Temperatura apei
  • Hartă satelitară
  • Meteo pe hartă
  • Widget-uri
  • user-avatar
    Intrare

    Meteo pe oră la Hudyakovka

    Astăzi, 18 August, Sâmbătă

    Timp Temperatura Precipitaţii Vânt Presiune Umiditate
    00:00 +9°C° 0 mm 2 m/s 746 mmHg 85%
    01:00 +8°C° 0 mm 2 m/s 746 mmHg 87%
    02:00 +8°C° 0 mm 2 m/s 747 mmHg 89%
    03:00 +8°C° 0 mm 2 m/s 747 mmHg 91%
    04:00 +7°C° 0 mm 2 m/s 747 mmHg 93%
    05:00 +8°C° 0 mm 2 m/s 747 mmHg 90%
    06:00 +9°C° 0 mm 2 m/s 747 mmHg 87%
    07:00 +9°C° 0 mm 3 m/s 747 mmHg 85%
    08:00 +11°C° 0 mm 3 m/s 747 mmHg 79%
    09:00 +13°C° 0 mm 3 m/s 747 mmHg 73%
    10:00 +15°C° 0 mm 4 m/s 747 mmHg 67%
    11:00 +15°C° 0,1 mm 4 m/s 747 mmHg 65%
    12:00 +17°C° 0,1 mm 4 m/s 747 mmHg 62%
    13:00 +18°C° 0,1 mm 4 m/s 747 mmHg 59%
    14:00 +18°C° 0,1 mm 4 m/s 747 mmHg 61%
    15:00 +17°C° 0,1 mm 4 m/s 747 mmHg 62%
    16:00 +17°C° 0,1 mm 4 m/s 747 mmHg 64%
    17:00 +15°C° 0 mm 4 m/s 747 mmHg 68%
    18:00 +14°C° 0 mm 3 m/s 747 mmHg 73%
    19:00 +13°C° 0 mm 3 m/s 747 mmHg 78%
    20:00 +12°C° 0 mm 3 m/s 748 mmHg 81%
    21:00 +11°C° 0 mm 3 m/s 748 mmHg 84%
    22:00 +9°C° 0 mm 3 m/s 748 mmHg 87%
    23:00 +9°C° 0 mm 3 m/s 748 mmHg 88%

    Mâine, 19 August, Duminică

    Timp Temperatura Precipitaţii Vânt Presiune Umiditate
    00:00 +8°C° 0 mm 2 m/s 748 mmHg 89%
    01:00 +8°C° 0 mm 2 m/s 748 mmHg 90%
    02:00 +7°C° 0 mm 2 m/s 748 mmHg 91%
    03:00 +7°C° 0 mm 2 m/s 748 mmHg 92%
    04:00 +7°C° 0 mm 2 m/s 748 mmHg 93%
    05:00 +8°C° 0 mm 2 m/s 748 mmHg 91%
    06:00 +9°C° 0 mm 2 m/s 749 mmHg 88%
    07:00 +9°C° 0 mm 2 m/s 749 mmHg 86%
    08:00 +11°C° 0 mm 3 m/s 749 mmHg 80%
    09:00 +13°C° 0 mm 3 m/s 749 mmHg 73%
    10:00 +16°C° 0 mm 3 m/s 749 mmHg 67%
    11:00 +17°C° 0 mm 3 m/s 748 mmHg 64%
    12:00 +18°C° 0 mm 3 m/s 748 mmHg 61%
    13:00 +19°C° 0 mm 3 m/s 748 mmHg 57%
    14:00 +19°C° 0,1 mm 3 m/s 748 mmHg 58%
    15:00 +19°C° 0,1 mm 3 m/s 748 mmHg 58%
    16:00 +19°C° 0,1 mm 3 m/s 748 mmHg 58%
    17:00 +18°C° 0 mm 3 m/s 747 mmHg 64%
    18:00 +16°C° 0 mm 2 m/s 747 mmHg 70%
    19:00 +15°C° 0 mm 2 m/s 747 mmHg 76%
    20:00 +14°C° 0 mm 2 m/s 747 mmHg 79%
    21:00 +12°C° 0 mm 2 m/s 747 mmHg 82%
    22:00 +11°C° 0 mm 1 m/s 747 mmHg 85%
    23:00 +10°C° 0 mm 1 m/s 747 mmHg 85%

    Poimâine, 20 August, Luni

    Timp Temperatura Precipitaţii Vânt Presiune Umiditate
    00:00 +10°C° 0 mm 1 m/s 747 mmHg 86%
    01:00 +8°C° 0 mm 0 m/s 747 mmHg 86%
    02:00 +8°C° 0 mm 0 m/s 747 mmHg 87%
    03:00 +9°C° 0 mm 1 m/s 747 mmHg 87%
    04:00 +8°C° 0 mm 1 m/s 747 mmHg 88%
    05:00 +8°C° 0 mm 0 m/s 747 mmHg 85%
    06:00 +10°C° 0 mm 0 m/s 747 mmHg 82%
    07:00 +11°C° 0 mm 0 m/s 747 mmHg 80%
    08:00 +12°C° 0 mm 0 m/s 747 mmHg 74%
    09:00 +15°C° 0 mm 1 m/s 747 mmHg 68%
    10:00 +18°C° 0 mm 1 m/s 746 mmHg 62%
    11:00 +19°C° 0 mm 1 m/s 746 mmHg 59%
    12:00 +20°C° 0 mm 1 m/s 746 mmHg 56%
    13:00 +19°C° 0 mm 2 m/s 746 mmHg 53%
    14:00 +19°C° 0 mm 2 m/s 745 mmHg 54%
    15:00 +20°C° 0 mm 2 m/s 745 mmHg 55%
    16:00 +20°C° 0 mm 2 m/s 745 mmHg 56%
    17:00 +19°C° 0 mm 2 m/s 745 mmHg 63%
    18:00 +17°C° 0 mm 2 m/s 745 mmHg 69%
    19:00 +16°C° 0 mm 2 m/s 744 mmHg 75%
    20:00 +16°C° 0 mm 2 m/s 744 mmHg 76%
    21:00 +15°C° 0 mm 2 m/s 744 mmHg 77%
    22:00 +14°C° 0 mm 2 m/s 744 mmHg 78%
    23:00 +14°C° 0 mm 2 m/s 744 mmHg 79%

    21 August, Marţi

    Timp Temperatura Precipitaţii Vânt Presiune Umiditate
    00:00 +14°C° 0 mm 2 m/s 743 mmHg 80%
    01:00 +13°C° 0 mm 3 m/s 743 mmHg 81%
    02:00 +13°C° 0 mm 3 m/s 743 mmHg 84%
    03:00 +13°C° 0 mm 3 m/s 743 mmHg 86%
    04:00 +13°C° 0 mm 3 m/s 743 mmHg 89%
    05:00 +13°C° 0 mm 3 m/s 743 mmHg 90%
    06:00 +14°C° 0 mm 3 m/s 742 mmHg 91%
    07:00 +14°C° 0 mm 3 m/s 742 mmHg 93%
    08:00 +16°C° 0 mm 3 m/s 742 mmHg 92%
    09:00 +16°C° 0 mm 2 m/s 742 mmHg 91%
    10:00 +17°C° 0 mm 2 m/s 742 mmHg 90%
    11:00 +18°C° 0 mm 2 m/s 742 mmHg 87%
    12:00 +19°C° 0 mm 2 m/s 742 mmHg 84%
    13:00 +20°C° 0 mm 2 m/s 742 mmHg 81%
    14:00 +20°C° 0 mm 2 m/s 742 mmHg 78%
    15:00 +21°C° 0 mm 2 m/s 742 mmHg 74%
    16:00 +23°C° 0 mm 2 m/s 742 mmHg 70%
    17:00 +21°C° 0 mm 2 m/s 742 mmHg 75%
    18:00 +21°C° 0 mm 1 m/s 742 mmHg 79%
    19:00 +20°C° 0 mm 1 m/s 742 mmHg 83%
    20:00 +19°C° 0 mm 1 m/s 742 mmHg 86%
    21:00 +18°C° 0 mm 1 m/s 742 mmHg 89%
    22:00 +16°C° 0 mm 2 m/s 742 mmHg 92%
    23:00 +15°C° 0 mm 2 m/s 742 mmHg 93%

    22 August, Miercuri

    Timp Temperatura Precipitaţii Vânt Presiune Umiditate
    00:00 +15°C° 0 mm 2 m/s 741 mmHg 94%
    01:00 +15°C° 0 mm 2 m/s 741 mmHg 95%
    02:00 +15°C° 0 mm 2 m/s 741 mmHg 95%
    03:00 +15°C° 0 mm 2 m/s 741 mmHg 96%
    04:00 +15°C° 0 mm 2 m/s 741 mmHg 97%
    05:00 +15°C° 0 mm 2 m/s 741 mmHg 96%
    06:00 +16°C° 0 mm 2 m/s 741 mmHg 95%
    07:00 +17°C° 0 mm 3 m/s 740 mmHg 94%
    08:00 +18°C° 0 mm 3 m/s 740 mmHg 90%
    09:00 +20°C° 0 mm 3 m/s 740 mmHg 85%
    10:00 +21°C° 0 mm 4 m/s 740 mmHg 81%
    11:00 +22°C° 0,8 mm 4 m/s 739 mmHg 77%
    12:00 +23°C° 0,8 mm 5 m/s 739 mmHg 74%
    13:00 +25°C° 0,8 mm 5 m/s 738 mmHg 71%
    14:00 +25°C° 0,7 mm 5 m/s 738 mmHg 72%
    15:00 +25°C° 0,7 mm 5 m/s 738 mmHg 73%
    16:00 +25°C° 0,7 mm 4 m/s 738 mmHg 74%
    17:00 +22°C° 1,1 mm 4 m/s 738 mmHg 79%
    18:00 +20°C° 1,1 mm 4 m/s 738 mmHg 85%
    19:00 +19°C° 1,1 mm 4 m/s 738 mmHg 90%
    20:00 +18°C° 0,8 mm 4 m/s 738 mmHg 91%
    21:00 +17°C° 0,8 mm 4 m/s 738 mmHg 93%
    22:00 +17°C° 0,8 mm 4 m/s 738 mmHg 95%
    23:00 +14°C° 0,1 mm 4 m/s 739 mmHg 95%

    23 August, Joi

    Timp Temperatura Precipitaţii Vânt Presiune Umiditate
    00:00 +13°C° 0,1 mm 4 m/s 739 mmHg 95%
    01:00 +12°C° 0,1 mm 4 m/s 739 mmHg 95%
    02:00 +11°C° 0 mm 4 m/s 739 mmHg 95%
    03:00 +10°C° 0 mm 4 m/s 740 mmHg 95%
    04:00 +8°C° 0 mm 4 m/s 740 mmHg 96%
    05:00 +8°C° 0 mm 4 m/s 741 mmHg 94%
    06:00 +8°C° 0 mm 4 m/s 741 mmHg 92%
    07:00 +8°C° 0 mm 5 m/s 742 mmHg 90%
    08:00 +9°C° 0 mm 5 m/s 742 mmHg 84%
    09:00 +10°C° 0 mm 5 m/s 742 mmHg 78%
    10:00 +11°C° 0 mm 6 m/s 742 mmHg 72%
    11:00 +13°C° 0 mm 6 m/s 742 mmHg 69%
    12:00 +13°C° 0 mm 6 m/s 742 mmHg 66%
    13:00 +14°C° 0 mm 6 m/s 742 mmHg 64%
    14:00 +14°C° 0,1 mm 6 m/s 743 mmHg 64%
    15:00 +14°C° 0,1 mm 5 m/s 743 mmHg 64%
    16:00 +14°C° 0,1 mm 5 m/s 743 mmHg 64%
    17:00 +13°C° 0 mm 4 m/s 743 mmHg 67%
    18:00 +12°C° 0 mm 3 m/s 743 mmHg 70%
    19:00 +11°C° 0 mm 3 m/s 744 mmHg 74%
    20:00 +12°C° 0 mm 2 m/s 744 mmHg 75%
    21:00 +10°C° 0 mm 2 m/s 744 mmHg 76%
    22:00 +9°C° 0 mm 2 m/s 744 mmHg 77%
    23:00 +9°C° 0 mm 2 m/s 744 mmHg 79%
    Arată mai mult